TimePST,TemperatureF,Dew PointF,Humidity,Sea Level PressureIn,VisibilityMPH,Wind Direction,Wind SpeedMPH,Gust SpeedMPH,PrecipitationIn,Events,Conditions,WindDirDegrees,DateUTC
12:24 AM,32.0,23.0,69,30.18,10.0,North,8.1,-,N/A,,Mostly Cloudy,350,2013-12-04 08:24:00
12:53 AM,30.9,23.0,72,30.21,10.0,North,4.6,-,N/A,,Scattered Clouds,350,2013-12-04 08:53:00
1:53 AM,30.0,24.1,79,30.20,10.0,NNE,4.6,-,N/A,,Clear,20,2013-12-04 09:53:00
2:53 AM,28.9,23.0,78,30.22,10.0,Calm,Calm,-,N/A,,Clear,0,2013-12-04 10:53:00
3:53 AM,28.0,21.9,78,30.23,10.0,NNE,3.5,-,N/A,,Clear,30,2013-12-04 11:53:00
4:33 AM,27.0,23.0,85,30.21,10.0,Calm,Calm,-,N/A,,Mostly Cloudy,0,2013-12-04 12:33:00
4:53 AM,27.0,23.0,85,30.23,10.0,Calm,Calm,-,N/A,,Overcast,0,2013-12-04 12:53:00
5:39 AM,26.1,21.9,84,30.22,10.0,NNE,4.6,-,N/A,,Scattered Clouds,20,2013-12-04 13:39:00
5:53 AM,26.1,21.9,84,30.25,10.0,NNE,3.5,-,N/A,,Partly Cloudy,30,2013-12-04 13:53:00
6:53 AM,27.0,21.0,78,30.25,10.0,NNE,4.6,-,N/A,,Clear,30,2013-12-04 14:53:00
7:53 AM,24.1,21.0,88,30.27,9.0,Calm,Calm,-,N/A,,Clear,0,2013-12-04 15:53:00
8:53 AM,28.0,19.9,72,30.29,10.0,NNE,5.8,-,N/A,,Clear,20,2013-12-04 16:53:00
9:53 AM,30.0,21.0,69,30.30,10.0,North,5.8,-,N/A,,Clear,10,2013-12-04 17:53:00
10:53 AM,32.0,23.0,69,30.30,10.0,Calm,Calm,-,N/A,,Clear,0,2013-12-04 18:53:00
11:53 AM,33.1,21.9,64,30.28,10.0,Calm,Calm,-,N/A,,Clear,0,2013-12-04 19:53:00
12:53 PM,35.1,23.0,61,30.26,10.0,SW,4.6,-,N/A,,Clear,230,2013-12-04 20:53:00
1:53 PM,37.0,19.9,50,30.24,10.0,NNE,4.6,-,N/A,,Clear,30,2013-12-04 21:53:00
2:53 PM,37.9,19.9,48,30.23,10.0,North,8.1,-,N/A,,Clear,10,2013-12-04 22:53:00
3:53 PM,37.0,19.9,50,30.24,10.0,NNW,5.8,-,N/A,,Clear,340,2013-12-04 23:53:00
4:53 PM,35.1,23.0,61,30.24,10.0,North,3.5,-,N/A,,Clear,10,2013-12-05 00:53:00
5:53 PM,30.9,23.0,72,30.25,10.0,Calm,Calm,-,N/A,,Clear,0,2013-12-05 01:53:00
6:53 PM,30.0,23.0,75,30.25,9.0,Calm,Calm,-,N/A,,Clear,0,2013-12-05 02:53:00
7:53 PM,28.0,23.0,81,30.26,7.0,Calm,Calm,-,N/A,,Clear,0,2013-12-05 03:53:00
8:53 PM,26.1,21.9,84,30.27,6.0,Calm,Calm,-,N/A,,Clear,0,2013-12-05 04:53:00
9:53 PM,25.0,21.0,85,30.28,6.0,Calm,Calm,-,N/A,,Clear,0,2013-12-05 05:53:00
10:53 PM,24.1,19.9,84,30.29,9.0,Calm,Calm,-,N/A,,Clear,0,2013-12-05 06:53:00
11:53 PM,23.0,19.0,85,30.29,7.0,Calm,Calm,-,N/A,,Clear,0,2013-12-05 07:53:00